User: anonymous   Login
Location: Huesca
(42.1318°N, 0.4078°W)
Time: 23:46:33
(UTC+02:00)
Language:

RS-44 - Orbit

View from above orbital plane
View from above orbital plane
View from above satellite
View from above satellite

Ground track
Ground track

The orbit data is extracted from the following two-line orbital elements,

1 44909U 19096E   24115.47957780  .00000042  00000-0  12210-3 0  9996
2 44909  82.5187 140.4653 0217583 176.4755 183.7943 12.79729014202150
Epoch (UTC): 24 April 2024 11:30:35
Eccentricity: 0.0217583
inclination: 82.5187°
perigee height: 1174 km
apogee height: 1510 km
right ascension of ascending node: 140.4653°
argument of perigee: 176.4755°
revolutions per day: 12.79729014
mean anomaly at epoch: 183.7943°
orbit number at epoch: 20215

The dashed part of the orbit path shows where the satellite is in the earth's shadow,  

DLR